Time,TemperatureF,DewpointF,PressureIn,WindDirection,WindDirectionDegrees,WindSpeedMPH,WindSpeedGustMPH,Humidity,HourlyPrecipIn,Conditions,Clouds,dailyrainin,SolarRadiationWatts/m^2,SoftwareType,DateUTC
2013-03-02 00:10:00,32.6,18.0,30.28,North,355,0.0,-999.0,55,-99.99,,,0.00,0,weatherlink.com 1.10,2013-03-02 07:10:00,
2013-03-02 00:25:00,32.2,18.0,30.28,North,355,0.0,-999.0,56,-99.99,,,0.00,0,weatherlink.com 1.10,2013-03-02 07:25:00,
2013-03-02 00:41:00,32.4,19.0,30.27,North,355,0.0,-999.0,57,-99.99,,,0.00,0,weatherlink.com 1.10,2013-03-02 07:41:00,
2013-03-02 00:56:00,32.8,19.0,30.27,North,355,0.0,-999.0,58,-99.99,,,0.00,0,weatherlink.com 1.10,2013-03-02 07:56:00,
2013-03-02 01:11:00,33.2,19.0,30.28,North,355,0.0,-999.0,57,-99.99,,,0.00,0,weatherlink.com 1.10,2013-03-02 08:11:00,
2013-03-02 01:26:00,34.0,20.0,30.27,North,355,0.0,-999.0,57,-99.99,,,0.00,0,weatherlink.com 1.10,2013-03-02 08:26:00,
2013-03-02 01:41:00,34.8,21.0,30.27,North,355,0.0,-999.0,57,-99.99,,,0.00,0,weatherlink.com 1.10,2013-03-02 08:41:00,
2013-03-02 01:56:00,35.3,21.0,30.26,North,355,0.0,-999.0,57,-99.99,,,0.00,0,weatherlink.com 1.10,2013-03-02 08:56:00,
2013-03-02 02:11:00,35.7,22.0,30.25,North,355,0.0,-999.0,59,-99.99,,,0.00,0,weatherlink.com 1.10,2013-03-02 09:11:00,
2013-03-02 02:26:00,35.9,23.0,30.25,North,355,0.0,-999.0,60,-99.99,,,0.00,0,weatherlink.com 1.10,2013-03-02 09:26:00,
2013-03-02 02:41:00,36.1,24.0,30.24,North,355,0.0,-999.0,62,-99.99,,,0.00,0,weatherlink.com 1.10,2013-03-02 09:41:00,
2013-03-02 02:56:00,36.2,25.0,30.25,North,355,0.0,-999.0,63,-99.99,,,0.00,0,weatherlink.com 1.10,2013-03-02 09:56:00,
2013-03-02 03:11:00,35.6,24.0,30.24,North,355,0.0,-999.0,64,-99.99,,,0.00,0,weatherlink.com 1.10,2013-03-02 10:11:00,
2013-03-02 03:26:00,34.4,24.0,30.24,North,355,0.0,-999.0,67,-99.99,,,0.00,0,weatherlink.com 1.10,2013-03-02 10:26:00,
2013-03-02 03:41:00,33.8,24.0,30.24,North,355,0.0,-999.0,68,-99.99,,,0.00,0,weatherlink.com 1.10,2013-03-02 10:41:00,
2013-03-02 03:56:00,32.6,24.0,30.23,North,355,0.0,-999.0,71,-99.99,,,0.00,0,weatherlink.com 1.10,2013-03-02 10:56:00,
2013-03-02 04:11:00,33.1,26.0,30.24,North,355,0.0,-999.0,74,-99.99,,,0.00,0,weatherlink.com 1.10,2013-03-02 11:11:00,
2013-03-02 04:26:00,32.4,25.0,30.24,North,355,1.0,-999.0,73,-99.99,,,0.00,0,weatherlink.com 1.10,2013-03-02 11:26:00,
2013-03-02 04:41:00,32.4,25.0,30.24,North,355,0.0,-999.0,75,-99.99,,,0.00,0,weatherlink.com 1.10,2013-03-02 11:41:00,
2013-03-02 04:56:00,32.8,26.0,30.23,North,355,0.0,-999.0,75,-99.99,,,0.00,0,weatherlink.com 1.10,2013-03-02 11:56:00,
2013-03-02 05:11:00,32.5,25.0,30.23,North,355,0.0,-999.0,75,-99.99,,,0.00,0,weatherlink.com 1.10,2013-03-02 12:11:00,
2013-03-02 05:26:00,32.4,26.0,30.23,North,355,0.0,-999.0,76,-99.99,,,0.00,0,weatherlink.com 1.10,2013-03-02 12:26:00,
2013-03-02 05:41:00,33.4,27.0,30.24,North,355,0.0,-999.0,76,-99.99,,,0.00,0,weatherlink.com 1.10,2013-03-02 12:41:00,
2013-03-02 05:56:00,34.1,27.0,30.24,North,355,0.0,-999.0,76,-99.99,,,0.00,0,weatherlink.com 1.10,2013-03-02 12:56:00,
2013-03-02 06:11:00,35.7,29.0,30.24,North,355,0.0,-999.0,76,-99.99,,,0.00,0,weatherlink.com 1.10,2013-03-02 13:11:00,
2013-03-02 06:26:00,36.4,29.0,30.24,North,355,0.0,-999.0,73,-99.99,,,0.00,0,weatherlink.com 1.10,2013-03-02 13:26:00,
2013-03-02 06:41:00,34.7,26.0,30.24,North,355,0.0,-999.0,71,-99.99,,,0.00,14,weatherlink.com 1.10,2013-03-02 13:41:00,
2013-03-02 06:56:00,35.1,28.0,30.24,North,355,0.0,-999.0,75,-99.99,,,0.00,26,weatherlink.com 1.10,2013-03-02 13:56:00,
2013-03-02 07:11:00,36.5,29.0,30.24,North,355,0.0,-999.0,73,-99.99,,,0.00,37,weatherlink.com 1.10,2013-03-02 14:11:00,
2013-03-02 07:26:00,38.6,30.0,30.24,North,355,0.0,-999.0,71,-99.99,,,0.00,54,weatherlink.com 1.10,2013-03-02 14:26:00,
2013-03-02 07:41:00,40.5,31.0,30.24,North,355,0.0,-999.0,70,-99.99,,,0.00,81,weatherlink.com 1.10,2013-03-02 14:41:00,
2013-03-02 07:56:00,43.1,32.0,30.24,North,355,0.0,-999.0,66,-99.99,,,0.00,114,weatherlink.com 1.10,2013-03-02 14:56:00,
2013-03-02 08:11:00,45.9,33.0,30.25,North,355,0.0,-999.0,60,-99.99,,,0.00,95,weatherlink.com 1.10,2013-03-02 15:11:00,
2013-03-02 08:27:00,48.7,33.0,30.24,North,355,0.0,-999.0,55,-99.99,,,0.00,81,weatherlink.com 1.10,2013-03-02 15:27:00,
2013-03-02 08:42:00,52.0,33.0,30.24,North,355,2.0,-999.0,48,-99.99,,,0.00,251,weatherlink.com 1.10,2013-03-02 15:42:00,
2013-03-02 08:57:00,54.6,32.0,30.23,North,349,3.0,-999.0,43,-99.99,,,0.00,188,weatherlink.com 1.10,2013-03-02 15:57:00,
2013-03-02 09:12:00,55.6,32.0,30.23,NNW,345,5.0,-999.0,41,-99.99,,,0.00,213,weatherlink.com 1.10,2013-03-02 16:12:00,
2013-03-02 09:27:00,56.0,32.0,30.23,NNW,341,3.0,-999.0,41,-99.99,,,0.00,250,weatherlink.com 1.10,2013-03-02 16:27:00,
2013-03-02 09:42:00,56.3,32.0,30.22,NNW,327,4.0,-999.0,40,-99.99,,,0.00,209,weatherlink.com 1.10,2013-03-02 16:42:00,
2013-03-02 09:57:00,55.9,32.0,30.22,NNW,347,4.0,-999.0,40,-99.99,,,0.00,190,weatherlink.com 1.10,2013-03-02 16:57:00,
2013-03-02 10:12:00,56.1,32.0,30.21,North,5,2.0,-999.0,40,-99.99,,,0.00,269,weatherlink.com 1.10,2013-03-02 17:12:00,
2013-03-02 10:27:00,56.5,32.0,30.22,North,350,5.0,-999.0,39,-99.99,,,0.00,216,weatherlink.com 1.10,2013-03-02 17:27:00,
2013-03-02 10:42:00,56.6,32.0,30.21,NNW,346,4.0,-999.0,39,-99.99,,,0.00,211,weatherlink.com 1.10,2013-03-02 17:42:00,
2013-03-02 10:57:00,56.7,32.0,30.20,North,9,2.0,-999.0,39,-99.99,,,0.00,246,weatherlink.com 1.10,2013-03-02 17:57:00,
2013-03-02 11:12:00,57.7,32.0,30.20,North,355,9.0,-999.0,38,-99.99,,,0.00,362,weatherlink.com 1.10,2013-03-02 18:12:00,
2013-03-02 11:27:00,58.2,32.0,30.19,North,360,9.0,-999.0,37,-99.99,,,0.00,438,weatherlink.com 1.10,2013-03-02 18:27:00,
2013-03-02 11:42:00,58.6,32.0,30.17,North,355,7.0,-999.0,37,-99.99,,,0.00,413,weatherlink.com 1.10,2013-03-02 18:42:00,
2013-03-02 11:57:00,59.0,32.0,30.16,North,10,4.0,-999.0,36,-99.99,,,0.00,367,weatherlink.com 1.10,2013-03-02 18:57:00,
2013-03-02 12:12:00,59.4,32.0,30.16,North,355,5.0,-999.0,36,-99.99,,,0.00,390,weatherlink.com 1.10,2013-03-02 19:12:00,
2013-03-02 12:27:00,58.8,32.0,30.14,North,5,2.0,-999.0,36,-99.99,,,0.00,450,weatherlink.com 1.10,2013-03-02 19:27:00,
2013-03-02 12:42:00,59.1,32.0,30.13,NNW,336,5.0,-999.0,36,-99.99,,,0.00,297,weatherlink.com 1.10,2013-03-02 19:42:00,
2013-03-02 12:57:00,59.1,32.0,30.13,North,355,6.0,-999.0,36,-99.99,,,0.00,227,weatherlink.com 1.10,2013-03-02 19:57:00,
2013-03-02 13:12:00,60.6,32.0,30.12,NE,36,7.0,-999.0,34,-99.99,,,0.00,596,weatherlink.com 1.10,2013-03-02 20:12:00,
2013-03-02 13:27:00,61.4,33.0,30.11,North,355,9.0,-999.0,34,-99.99,,,0.00,490,weatherlink.com 1.10,2013-03-02 20:27:00,
2013-03-02 13:42:00,62.1,32.0,30.11,North,355,6.0,-999.0,33,-99.99,,,0.00,441,weatherlink.com 1.10,2013-03-02 20:42:00,
2013-03-02 13:57:00,61.8,32.0,30.10,North,9,3.0,-999.0,33,-99.99,,,0.00,517,weatherlink.com 1.10,2013-03-02 20:57:00,
2013-03-02 14:13:00,62.1,32.0,30.10,North,355,5.0,-999.0,33,-99.99,,,0.00,510,weatherlink.com 1.10,2013-03-02 21:13:00,
2013-03-02 14:28:00,62.4,32.0,30.09,North,350,5.0,-999.0,32,-99.99,,,0.00,62,weatherlink.com 1.10,2013-03-02 21:28:00,
2013-03-02 14:43:00,61.8,32.0,30.09,North,355,7.0,-999.0,33,-99.99,,,0.00,503,weatherlink.com 1.10,2013-03-02 21:43:00,
2013-03-02 14:58:00,60.9,31.0,30.09,NNE,24,7.0,-999.0,33,-99.99,,,0.00,146,weatherlink.com 1.10,2013-03-02 21:58:00,
2013-03-02 15:13:00,61.5,31.0,30.08,NNW,331,4.0,-999.0,32,-99.99,,,0.00,251,weatherlink.com 1.10,2013-03-02 22:13:00,
2013-03-02 15:28:00,62.1,32.0,30.08,North,5,3.0,-999.0,32,-99.99,,,0.00,204,weatherlink.com 1.10,2013-03-02 22:28:00,
2013-03-02 15:43:00,62.1,32.0,30.08,North,355,4.0,-999.0,32,-99.99,,,0.00,113,weatherlink.com 1.10,2013-03-02 22:43:00,
2013-03-02 15:58:00,62.5,30.0,30.08,NNW,330,4.0,-999.0,29,-99.99,,,0.00,283,weatherlink.com 1.10,2013-03-02 22:58:00,
2013-03-02 16:13:00,61.6,29.0,30.08,NNW,334,3.0,-999.0,29,-99.99,,,0.00,153,weatherlink.com 1.10,2013-03-02 23:13:00,
2013-03-02 16:28:00,60.4,29.0,30.07,NNW,333,5.0,-999.0,30,-99.99,,,0.00,105,weatherlink.com 1.10,2013-03-02 23:28:00,
2013-03-02 16:43:00,59.3,28.0,30.08,NW,326,3.0,-999.0,31,-99.99,,,0.00,62,weatherlink.com 1.10,2013-03-02 23:43:00,
2013-03-02 16:58:00,58.6,29.0,30.08,NNW,331,3.0,-999.0,32,-99.99,,,0.00,32,weatherlink.com 1.10,2013-03-02 23:58:00,
2013-03-02 17:13:00,57.9,29.0,30.08,NNW,330,2.0,-999.0,33,-99.99,,,0.00,19,weatherlink.com 1.10,2013-03-03 00:13:00,
2013-03-02 17:28:00,57.1,28.0,30.08,NNW,330,3.0,-999.0,33,-99.99,,,0.00,7,weatherlink.com 1.10,2013-03-03 00:28:00,
2013-03-02 17:43:00,55.3,28.0,30.07,North,360,1.0,-999.0,35,-99.99,,,0.00,0,weatherlink.com 1.10,2013-03-03 00:43:00,
2013-03-02 17:58:00,53.3,27.0,30.07,North,360,1.0,-999.0,37,-99.99,,,0.00,0,weatherlink.com 1.10,2013-03-03 00:58:00,
2013-03-02 18:13:00,51.8,27.0,30.07,North,5,2.0,-999.0,39,-99.99,,,0.00,0,weatherlink.com 1.10,2013-03-03 01:13:00,
2013-03-02 18:28:00,51.4,28.0,30.07,North,5,0.0,-999.0,40,-99.99,,,0.00,0,weatherlink.com 1.10,2013-03-03 01:28:00,
2013-03-02 18:43:00,50.0,27.0,30.07,North,5,0.0,-999.0,41,-99.99,,,0.00,0,weatherlink.com 1.10,2013-03-03 01:43:00,
2013-03-02 18:58:00,49.2,27.0,30.07,North,5,0.0,-999.0,42,-99.99,,,0.00,0,weatherlink.com 1.10,2013-03-03 01:58:00,
2013-03-02 19:13:00,48.7,27.0,30.06,North,5,0.0,-999.0,43,-99.99,,,0.00,0,weatherlink.com 1.10,2013-03-03 02:13:00,
2013-03-02 19:28:00,47.6,26.0,30.06,North,5,0.0,-999.0,44,-99.99,,,0.00,0,weatherlink.com 1.10,2013-03-03 02:28:00,
2013-03-02 19:43:00,46.5,27.0,30.05,North,5,0.0,-999.0,46,-99.99,,,0.00,0,weatherlink.com 1.10,2013-03-03 02:43:00,
2013-03-02 19:58:00,45.2,26.0,30.05,North,5,0.0,-999.0,48,-99.99,,,0.00,0,weatherlink.com 1.10,2013-03-03 02:58:00,
2013-03-02 20:13:00,44.2,26.0,30.04,North,5,0.0,-999.0,49,-99.99,,,0.00,0,weatherlink.com 1.10,2013-03-03 03:13:00,
2013-03-02 20:28:00,44.1,26.0,30.03,North,5,0.0,-999.0,50,-99.99,,,0.00,0,weatherlink.com 1.10,2013-03-03 03:28:00,
2013-03-02 20:43:00,43.7,26.0,30.03,North,360,0.0,-999.0,50,-99.99,,,0.00,0,weatherlink.com 1.10,2013-03-03 03:43:00,
2013-03-02 20:58:00,43.1,26.0,30.02,North,360,0.0,-999.0,51,-99.99,,,0.00,0,weatherlink.com 1.10,2013-03-03 03:58:00,
2013-03-02 21:13:00,42.1,25.0,30.02,North,360,0.0,-999.0,52,-99.99,,,0.00,0,weatherlink.com 1.10,2013-03-03 04:13:00,
2013-03-02 21:28:00,41.0,25.0,30.01,North,360,0.0,-999.0,54,-99.99,,,0.00,0,weatherlink.com 1.10,2013-03-03 04:28:00,
2013-03-02 21:43:00,39.9,25.0,30.00,North,360,0.0,-999.0,55,-99.99,,,0.00,0,weatherlink.com 1.10,2013-03-03 04:43:00,
2013-03-02 21:58:00,39.6,25.0,30.00,North,360,0.0,-999.0,56,-99.99,,,0.00,0,weatherlink.com 1.10,2013-03-03 04:58:00,
2013-03-02 22:13:00,39.6,25.0,29.99,North,360,0.0,-999.0,56,-99.99,,,0.00,0,weatherlink.com 1.10,2013-03-03 05:13:00,
2013-03-02 22:28:00,39.4,25.0,29.98,North,360,0.0,-999.0,56,-99.99,,,0.00,0,weatherlink.com 1.10,2013-03-03 05:28:00,
2013-03-02 22:43:00,39.2,25.0,29.96,North,360,0.0,-999.0,58,-99.99,,,0.00,0,weatherlink.com 1.10,2013-03-03 05:43:00,
2013-03-02 22:58:00,39.9,26.0,29.95,North,360,0.0,-999.0,58,-99.99,,,0.00,0,weatherlink.com 1.10,2013-03-03 05:58:00,
2013-03-02 23:13:00,41.2,26.0,29.94,North,360,0.0,-999.0,56,-99.99,,,0.00,0,weatherlink.com 1.10,2013-03-03 06:13:00,
2013-03-02 23:28:00,41.3,26.0,29.94,North,360,0.0,-999.0,56,-99.99,,,0.00,0,weatherlink.com 1.10,2013-03-03 06:28:00,
2013-03-02 23:43:00,41.4,27.0,29.93,North,360,0.0,-999.0,56,-99.99,,,0.00,0,weatherlink.com 1.10,2013-03-03 06:43:00,
2013-03-02 23:58:00,41.9,27.0,29.93,North,360,0.0,-999.0,55,-99.99,,,0.00,0,weatherlink.com 1.10,2013-03-03 06:58:00,